Location: Hawks Ness
(60.2333°N, 1.1667°W)
Time: 09:40:15
(UTC+00:00)

Cosmos-2242 - Pass Details

Date: 22 October 2019
Orbit: 590 x 618 km, 82.5° (Epoch: 19 November)

Event Time Altitude Azimuth Distance (km) Brightness Sun altitude
Rises 05:45:30 0° 346° (NNW) 2,862 6.3 -10.0°
Reaches altitude 10° 05:47:44 10° 348° (NNW) 1,950 5.5 -9.7°
Maximum altitude 05:52:03 73° 74° (ENE) 629 3.3 -9.2°
Drops below altitude 10° 05:56:17 10° 159° (SSE) 1,924 6.0 -8.6°
Sets 05:58:29 0° 162° (SSE) 2,820 6.8 -8.4°
